Location: Gretna
(49.0079°N, 97.5611°W)
Time: 21:05:24
(UTC-05:00)

Envisat - Visible Passes

Search period start: 18 October 2018 00:00
Search period end: 28 October 2018 00:00
Orbit: 764 x 766 km, 98.2° (Epoch: 18 October)

Date Brightness Start Highest point End Pass type
(mag) Time Alt. Az. Time Alt. Az. Time Alt. Az.
18 Oct 3.5 19:33:15 10° SE 19:37:56 39° ENE 19:42:38 10° N visible
18 Oct 4.6 21:12:29 10° SSW 21:17:01 32° W 21:21:36 10° NNW visible
19 Oct 4.2 18:57:47 10° ESE 19:01:32 21° ENE 19:05:17 10° NNE visible
19 Oct 3.3 20:35:03 10° S 20:40:06 66° WSW 20:45:11 10° NNW visible
20 Oct 3.0 19:58:21 10° SSE 20:03:22 63° ENE 20:08:25 10° N visible
20 Oct 5.4 21:39:08 10° SW 21:42:50 20° W 21:46:33 10° NW visible
21 Oct 3.7 19:22:21 10° SE 19:26:50 32° ENE 19:31:19 10° N visible
21 Oct 4.2 21:01:01 10° SSW 21:05:46 40° W 21:10:33 10° NNW visible
22 Oct 3.0 20:23:49 10° SSE 20:28:54 81° WSW 20:34:01 10° NNW visible
22 Oct 5.9 22:06:52 10° WSW 22:08:45 12° W 22:10:38 10° WNW visible
23 Oct 3.1 19:47:19 10° SE 19:52:13 51° ENE 19:57:09 10° N visible
23 Oct 5.1 21:27:25 10° SSW 21:31:31 24° W 21:35:40 10° NW visible
24 Oct 3.9 19:11:32 10° ESE 19:15:45 27° ENE 19:19:58 10° N visible
24 Oct 3.8 20:49:36 10° S 20:54:31 49° W 20:59:28 10° NNW visible
25 Oct 2.9 20:12:38 10° SSE 20:17:43 83° ENE 20:22:49 10° NNW visible
25 Oct 5.7 21:54:33 10° WSW 21:57:24 15° W 22:00:17 10° NW visible
26 Oct 3.3 19:36:21 10° SE 19:41:05 42° ENE 19:45:52 10° N visible
26 Oct 4.7 21:15:49 10° SSW 21:20:15 30° W 21:24:42 10° NNW visible
27 Oct 4.1 19:00:47 10° ESE 19:04:40 23° ENE 19:08:34 10° N visible
27 Oct 3.4 20:38:16 10° S 20:43:18 61° W 20:48:21 10° NNW visible
